Location: Asheville, NC
(35.6000°N, 82.5500°W)
Time: 01:55:33
(UTC-04:00)

Vanguard 3 - Pass Details

Date: 13 December 2017
Orbit: 508 x 3264 km, 33.3° (Epoch: 20 July)

Event Time Altitude Azimuth Distance (km) Brightness Sun altitude
Rises 11:42:55 0° 228° (SW) 3,769 11.0 30.4°
Reaches altitude 10° 11:46:28 10° 216° (SW) 2,425 10.3 30.5°
Maximum altitude 11:50:47 25° 162° (SSE) 1,297 10.7 30.7°
Drops below altitude 10° 11:54:04 10° 105° (ESE) 1,813 9.3 30.8°
Sets 11:56:20 0° 91° (E) 2,619 9.9 30.8°
